SCP
-0 0 0 -0 -0 -0 -0 -0 -0 -0 -0 -0 -0 0 -0 -0 0 0 0 0 0 0 -0 -0 -0 -0 -0 -0 -0 -0 -0 -0 -0 -0 0 0 -0 -0 0 -0 -0 -0 -0
0 0 -0 -0 -0 -0 -0 -0 -0 -0 -0 -0 -0 -0 0 0 0 0 -0 -0 0 0 0 0 -0 -0 -0 -0 -0 -0 -0 -0 -0 -0 -0 0 0 -0 0 -0 0 -0 -0
-0 -0 -0 -0 -0 -0 -0 -0 -0 -0 -0 -0 -0 -0 -0 -0 0 0 -0 -0 -0 -0 -0 -0 -0 -0 -0 -0 0 0 0 -0 0 -0 -0 -0 -0 -0 -0 -0 -0 0 0
-0 -0 -0 -0 -0 -0 -0 -0 -0 -0 -0 -0 0 0 -0 0 0 0 0 -0 -0 -0 -0 -0 -0 -0 -0 -0 0 0 0 0 0 0 0 -0 -0 0 -0 -0 0 0 -0
-0 -0 -0 -0 -0 -0 -0 -0 -0 -0 -0 0 -0 -0 -0 -0 -0 -0 -0 -0 0 0 -0 -0 -0 -0 -0 -0 -0 0 0 0 0 -0 -0 -0 -0 -0 0 -0 -0 -0 -0
-0 -0 -0 -0 -0 0 0 -0 0 0 0 0 0 0 0 0 -0 0 0 0 -0 -0 -0 -0 -0 -0 -0 -0 -0 -0 -0 -0 -0 0 0 0 -0 -0 0 0 0 0 0
0 -0 -0 0 0 0 0 0 0 0 0 0 0 0 0 0 -0 0 0 0 0 0 0 -0 -0 -0 -0 -0 -0 -0 -0 -0 -0 0 -0 0 -0 -0 -0 -0 -0 0 0
0 0 0 0 0 0 0 0 0 0 0 0 0 0 0 0 0 0 0 0 0 0 0 -0 -0 -0 -0 -0 -0 -0 -0 -0 -0 0 0 -0 -0 -0 -0 -0 -0 -0 0
0 0 0 0 0 0 0 0 0 0 0 0 0 0 0 0 0 0 0 0 0 0 0 0 0 -0 -0 -0 -0 -0 -0 -0 -0 0 0 0 -0 -0 -0 -0 -0 0 0
0 0 0 0 0 0 -0 0 0 0 0 0 0 0 0 0 0 0 0 0 0 0 0 0 0 0 -0 -0 -0 -0 -0 -0 -0 -0 -0 -0 -0 -0 -0 -0 -0 0 0
0 0 0 0 0 0 -0 0 0 0 0 0 0 0 0 0 0 0 0 0 0 0 0 0 0 0 1 0 0 -0 -0 -0 -0 0 0 -0 -0 -0 -0 0 0 0 0
0 0 0 0 -0 -0 0 0 0 0 0 0 0 0 0 0 0 0 0 0 0 0 0 0 0 0 0 0 0 0 0 0 -0 0 -0 -0 0 0 0 0 0 0 0
0 0 0 -0 0 -0 0 0 0 0 -0 -0 0 0 -0 0 0 0 0 0 0 0 0 0 1 0 0 0 0 0 0 0 0 -0 -0 -0 -0 0 0 0 0 0 0
0 0 0 0 0 -0 0 0 -0 -0 -0 0 -0 0 -0 0 0 0 0 0 0 0 0 0 0 0 0 0 0 0 0 0 -0 0 -0 -0 -0 -0 -0 -0 0 0 0
0 0 0 0 0 0 0 0 0 -0 -0 -0 -0 -0 -0 -0 -0 0 0 0 0 0 0 0 -0 0 0 0 -0 0 0 0 -0 -0 0 -0 0 0 0 0 0 0 0
-0 0 0 0 -0 -0 0 0 0 -0 -0 -0 -0 -0 -0 0 -0 0 -0 0 -0 -0 -0 -0 -0 -0 0 0 -0 0 0 0 0 0 -0 0 0 0 0 0 0 0 0
0 0 0 -0 -0 -0 0 0 0 -0 -0 -0 -0 -0 -0 -0 -0 0 -0 -0 -0 -0 -0 -0 0 0 -0 0 -0 -0 -0 0 0 -0 0 0 0 -0 0 0 0 0 0
0 0 -0 0 -0 0 0 0 0 -0 -0 -0 -0 -0 -0 -0 -0 -0 -0 -0 -0 -0 -0 -0 0 0 -0 -0 -0 -0 -0 0 0 0 0 0 0 0 0 0 1 1 1
-0 -0 -0 -0 -0 -0 0 0 0 -0 -0 -0 -0 -0 -0 -0 -0 -0 -0 -0 -0 -0 -0 0 0 0 -0 0 0 -0 -0 -0 0 0 0 0 0 0 0 0 0 0 1
0 -0 0 -0 -0 -0 0 0 -0 0 -0 -0 -0 -0 -0 -0 -0 -0 -0 -0 -0 -0 0 0 -0 1 0 0 0 0 0 0 0 0 0 0 0 0 0 0 0 1 1
-0 -0 0 0 -0 -0 -0 -0 -0 -0 0 -0 -0 -0 -0 -0 -0 -0 -0 -0 -0 0 0 -0 -0 1 0 -0 -0 0 0 0 1 0 1 1 1 0 1 0 0 1 1
-0 -0 -0 0 -0 -0 -0 0 0 0 0 -0 -0 -0 -0 -0 -0 -0 -0 -0 -0 0 1 0 1 1 1 0 0 0 0 0 0 0 1 1 1 0 0 0 1 1 1
-0 -0 -0 -0 0 -0 -0 0 0 0 0 -0 0 0 -0 -0 -0 -0 -0 -0 -0 0 0 1 1 1 1 0 1 1 0 0 0 1 1 2 1 0 0 1 1 1 1
0 -0 -0 0 0 0 -0 0 -0 -0 -0 -0 -0 0 -0 -0 -0 -0 -0 -0 0 0 0 1 1 1 1 1 1 3 2 2 1 1 0 1 1 0 0 0 0 0 0
0 -0 -0 -0 0 0 -0 0 -0 0 0 0 -0 -0 0 -0 0 0 -0 0 0 0 1 1 1 1 1 1 1 1 1 2 2 2 1 1 1 0 0 0 0 0 0
-0 -0 0 0 0 0 -0 -0 -0 0 0 0 0 -0 0 0 0 -0 0 0 0 0 0 1 1 1 1 1 1 1 2 2 2 3 1 1 1 1 0 0 0 0 0
Wind_Speed_500mb
28 31 32 28 29 30 27 27 26 26 24 20 17 13 14 16 18 19 17 16 17 17 16 17 17 17 17 20 22 25 23 19 21 25 22 18 13 11 9 13 20 4 7
35 30 31 25 27 26 28 27 26 25 24 21 16 14 15 15 16 17 18 18 21 21 20 20 22 22 22 23 25 23 19 20 20 19 17 20 13 8 7 12 20 7 9
36 31 27 26 26 24 24 24 23 23 22 21 19 16 15 17 17 14 17 20 19 17 21 24 27 27 24 22 20 19 18 20 20 18 14 7 4 7 4 7 6 5 10
35 29 25 28 24 23 22 21 19 18 19 20 19 20 18 15 14 17 18 18 18 20 24 24 25 25 22 19 17 18 18 18 19 19 10 4 6 5 3 7 4 6 8
36 29 27 27 23 22 21 19 20 20 20 19 22 21 16 16 16 18 21 19 17 17 18 18 19 19 17 15 15 15 16 16 16 21 9 5 7 4 2 3 3 4 13
36 27 27 26 21 20 20 20 22 20 17 21 22 18 19 17 18 20 18 14 16 15 15 15 16 16 15 15 16 16 16 16 14 6 7 10 5 6 2 5 8 8 9
35 25 24 23 19 18 18 20 23 20 22 23 20 18 18 17 17 18 18 16 15 14 14 16 17 18 18 19 20 21 20 14 7 4 7 8 4 4 2 5 6 6 5
31 25 20 22 18 17 17 22 21 22 22 22 16 18 18 18 18 19 18 18 18 18 17 16 16 16 17 18 19 22 24 17 3 8 3 3 9 8 3 4 5 6 3
29 26 21 18 18 17 20 23 22 21 20 18 18 17 18 19 20 23 24 22 19 16 14 14 16 17 17 15 17 23 25 22 7 4 2 3 10 9 7 4 5 7 9
30 26 25 22 18 18 19 23 22 20 21 19 19 19 21 23 25 23 20 16 16 13 14 15 17 22 25 19 16 20 22 23 12 8 8 6 13 10 8 5 4 5 7
31 27 26 23 22 22 21 22 23 20 19 18 19 20 21 15 12 11 13 13 14 13 14 17 17 20 25 32 22 20 24 15 14 11 7 13 11 11 12 9 5 6 7
33 28 24 23 22 23 18 23 18 18 13 13 15 16 15 15 13 11 10 12 15 15 16 15 20 29 29 21 20 24 14 15 14 12 10 15 14 10 10 10 10 8 9
33 29 26 25 25 23 20 18 16 15 14 15 25 21 14 14 8 7 7 10 10 14 11 16 21 19 23 21 20 19 19 17 15 15 19 17 11 10 9 10 11 11 12
33 30 28 27 27 23 20 19 18 16 16 17 16 22 14 12 7 6 5 9 11 11 17 15 17 21 19 22 20 18 19 18 17 14 16 20 11 11 12 15 16 12 13
33 31 30 29 33 32 31 20 19 16 18 18 16 14 8 8 5 4 5 8 9 13 15 21 25 22 19 22 24 21 18 18 17 14 11 21 14 14 14 15 15 11 11
33 32 30 31 36 34 29 28 19 18 20 18 13 7 8 5 5 4 5 7 10 12 12 21 31 28 23 27 28 26 24 22 23 19 14 16 25 19 18 20 19 19 19
34 33 32 32 37 37 31 26 18 18 18 16 11 10 8 6 4 3 3 6 10 14 18 22 26 28 27 27 28 28 27 25 25 21 17 19 19 26 25 25 26 25 24
34 36 34 32 37 40 33 28 19 19 18 15 12 8 10 8 8 3 7 10 15 16 18 22 25 26 25 30 32 34 28 25 23 18 18 18 19 19 28 32 29 26 27
36 37 37 37 40 43 36 29 24 22 19 18 15 11 12 10 9 9 9 13 20 17 18 22 23 25 29 30 31 33 27 27 18 19 17 16 20 24 24 28 28 26 30
36 37 38 40 43 47 40 36 22 19 17 19 17 13 13 8 8 8 9 12 14 12 10 14 25 23 36 47 43 33 32 21 15 21 21 18 20 21 18 21 22 25 32
38 39 41 48 51 51 45 32 23 19 20 22 19 19 14 7 8 11 9 12 13 13 18 20 23 22 40 22 50 34 31 20 18 25 20 21 23 24 24 24 23 18 20
44 42 42 48 54 55 42 34 24 22 20 21 22 22 21 13 10 11 14 14 18 22 28 20 20 38 26 28 36 31 26 25 10 33 24 23 26 23 17 15 10 8 4
50 48 45 48 53 54 41 38 31 23 25 23 24 24 22 20 18 14 15 16 23 29 24 24 27 28 33 31 32 24 19 26 35 22 26 17 27 17 14 11 11 11 9
53 49 48 49 49 53 53 38 37 29 28 25 25 22 24 23 22 20 19 21 26 23 29 30 33 32 30 32 29 32 28 30 25 31 28 23 20 13 14 9 12 14 13
55 54 51 51 53 50 52 46 39 37 30 26 25 27 29 29 30 26 24 27 29 23 25 33 33 34 32 31 34 36 28 30 31 20 36 28 23 9 8 9 10 10 14
60 57 53 54 61 57 53 49 48 39 37 30 30 28 24 23 23 25 27 31 32 32 29 33 35 38 41 35 37 36 31 28 28 27 29 32 25 12 6 8 11 13 16
Wind_Direction_500mb
137 140 132 132 126 125 125 126 125 123 125 131 135 128 96 90 95 93 84 81 81 84 88 93 92 93 93 89 88 89 81 63 53 52 59 73 83 86 84 80 92 81 131
141 141 134 132 122 117 118 119 118 119 121 126 124 109 99 98 93 91 89 87 93 85 78 89 95 95 93 97 95 79 58 39 32 49 63 48 50 68 88 90 118 208 116
139 140 134 125 119 122 119 122 119 117 120 115 104 106 112 111 106 107 104 100 85 90 86 83 82 84 87 86 77 65 48 30 27 26 46 85 112 35 40 104 99 130 144
137 134 134 126 122 118 120 120 119 116 115 115 107 106 101 112 113 115 115 115 100 83 75 75 76 78 78 72 61 44 31 24 21 40 41 48 130 52 85 130 94 124 135
136 138 144 126 126 125 121 115 114 113 116 119 118 113 112 104 107 110 116 105 86 75 72 69 66 63 56 47 39 31 28 24 24 50 13 44 139 257 88 136 65 118 126
140 144 139 132 129 128 127 120 117 116 121 123 122 115 113 105 103 107 111 93 75 69 63 60 57 57 52 42 30 20 13 7 17 350 25 20 82 207 183 155 178 177 171
142 153 142 137 132 133 132 125 129 136 126 122 132 125 128 117 108 102 99 93 85 78 66 56 51 46 40 36 25 11 355 340 18 326 343 47 20 3 284 213 191 169 174
147 146 153 143 139 134 133 138 139 135 133 127 135 129 123 114 108 105 100 96 87 77 72 64 54 43 37 27 19 15 10 357 341 275 274 49 357 12 337 260 235 236 211
148 152 149 145 145 137 137 139 139 134 139 139 133 125 117 112 109 103 99 92 89 81 70 64 46 36 21 13 12 13 17 21 42 299 304 11 338 1 358 306 264 263 251
151 153 151 149 147 144 145 145 137 140 139 141 127 120 112 109 105 101 92 87 83 77 71 59 45 29 12 4 360 6 21 21 16 341 326 267 330 351 359 339 289 285 282
155 159 157 159 156 155 154 150 139 138 138 128 120 120 110 115 107 81 92 86 73 59 38 30 31 19 23 16 7 14 33 11 10 356 335 295 325 347 353 349 321 303 292
160 163 166 157 160 153 153 154 153 145 142 149 145 136 121 122 110 100 75 61 45 38 33 33 26 28 29 30 10 9 360 3 354 358 311 317 317 331 343 338 337 319 302
163 164 166 164 160 155 166 156 152 154 152 143 137 130 137 114 107 70 53 47 38 30 38 27 13 10 11 17 10 9 7 1 348 336 310 321 298 296 310 325 316 299 300
169 169 167 169 168 165 162 150 158 155 153 140 147 132 125 96 89 94 87 41 33 20 26 12 1 351 352 358 356 353 4 355 348 344 316 320 301 287 295 313 315 299 297
175 176 174 173 170 168 157 172 161 160 147 159 145 144 130 111 113 83 51 49 26 9 1 1 355 345 348 346 353 346 340 342 341 341 330 312 306 298 289 302 305 296 302
178 180 180 175 171 170 170 168 167 160 175 156 163 167 149 123 128 56 26 20 5 3 360 355 359 6 355 343 341 340 339 338 329 321 308 307 310 301 285 287 286 280 288
183 181 184 178 174 172 169 168 170 173 172 180 188 187 170 148 170 139 307 342 339 351 3 355 356 349 347 342 335 334 332 330 325 310 303 305 305 310 310 292 280 280 287
185 185 183 178 180 175 177 181 173 183 185 195 201 211 227 218 230 266 308 311 313 345 342 336 341 332 342 341 335 330 326 328 329 332 321 300 296 294 309 300 289 278 292
187 186 185 182 181 177 175 176 177 195 201 213 221 229 249 241 264 270 294 302 317 327 332 339 338 346 345 343 336 329 324 311 332 328 317 299 301 304 293 285 284 285 298
188 188 187 184 182 179 181 181 190 203 214 214 215 225 232 241 269 277 297 327 347 343 329 333 18 353 331 340 338 332 322 306 300 331 321 316 308 320 313 294 287 294 296
190 188 190 189 187 184 187 191 202 204 205 213 218 220 226 241 277 272 294 312 331 323 306 323 348 329 15 316 324 326 333 315 301 325 329 324 320 324 309 297 297 283 298
194 193 193 194 193 191 193 196 203 207 214 210 223 229 226 244 275 289 277 291 301 304 305 334 338 306 336 334 318 318 319 331 324 321 319 324 318 330 327 335 338 319 303
198 199 198 195 196 199 194 201 213 213 213 225 228 233 243 251 260 283 295 289 306 309 304 306 312 317 332 339 322 304 306 309 314 317 305 307 323 337 354 350 358 4 4
200 203 202 201 201 206 208 207 213 213 220 225 230 236 234 248 255 264 275 287 299 292 296 315 327 331 325 322 323 305 289 281 294 306 327 315 336 342 353 12 22 8 18
199 204 205 206 207 209 214 210 220 218 227 228 231 238 247 243 255 259 263 268 288 300 291 303 314 317 321 314 325 312 295 284 290 284 310 318 320 315 340 13 353 11 1
205 205 206 209 211 214 218 217 223 222 221 228 237 240 253 254 259 267 259 268 280 288 300 302 304 314 316 315 321 311 300 284 298 304 310 311 314 302 309 343 352 353 351
Wind_Speed_850mb
28 31 32 28 29 30 27 27 26 26 24 20 17 13 14 16 18 19 17 16 17 17 16 17 17 17 17 20 22 25 23 19 21 25 22 18 13 11 9 13 20 4 7
35 30 31 25 27 26 28 27 26 25 24 21 16 14 15 15 16 17 18 18 21 21 20 20 22 22 22 23 25 23 19 20 20 19 17 20 13 8 7 12 20 7 9
36 31 27 26 26 24 24 24 23 23 22 21 19 16 15 17 17 14 17 20 19 17 21 24 27 27 24 22 20 19 18 20 20 18 14 7 4 7 4 7 6 5 10
35 29 25 28 24 23 22 21 19 18 19 20 19 20 18 15 14 17 18 18 18 20 24 24 25 25 22 19 17 18 18 18 19 19 10 4 6 5 3 7 4 6 8
36 29 27 27 23 22 21 19 20 20 20 19 22 21 16 16 16 18 21 19 17 17 18 18 19 19 17 15 15 15 16 16 16 21 9 5 7 4 2 3 3 4 13
36 27 27 26 21 20 20 20 22 20 17 21 22 18 19 17 18 20 18 14 16 15 15 15 16 16 15 15 16 16 16 16 14 6 7 10 5 6 2 5 8 8 9
35 25 24 23 19 18 18 20 23 20 22 23 20 18 18 17 17 18 18 16 15 14 14 16 17 18 18 19 20 21 20 14 7 4 7 8 4 4 2 5 6 6 5
31 25 20 22 18 17 17 22 21 22 22 22 16 18 18 18 18 19 18 18 18 18 17 16 16 16 17 18 19 22 24 17 3 8 3 3 9 8 3 4 5 6 3
29 26 21 18 18 17 20 23 22 21 20 18 18 17 18 19 20 23 24 22 19 16 14 14 16 17 17 15 17 23 25 22 7 4 2 3 10 9 7 4 5 7 9
30 26 25 22 18 18 19 23 22 20 21 19 19 19 21 23 25 23 20 16 16 13 14 15 17 22 25 19 16 20 22 23 12 8 8 6 13 10 8 5 4 5 7
31 27 26 23 22 22 21 22 23 20 19 18 19 20 21 15 12 11 13 13 14 13 14 17 17 20 25 32 22 20 24 15 14 11 7 13 11 11 12 9 5 6 7
33 28 24 23 22 23 18 23 18 18 13 13 15 16 15 15 13 11 10 12 15 15 16 15 20 29 29 21 20 24 14 15 14 12 10 15 14 10 10 10 10 8 9
33 29 26 25 25 23 20 18 16 15 14 15 25 21 14 14 8 7 7 10 10 14 11 16 21 19 23 21 20 19 19 17 15 15 19 17 11 10 9 10 11 11 12
33 30 28 27 27 23 20 19 18 16 16 17 16 22 14 12 7 6 5 9 11 11 17 15 17 21 19 22 20 18 19 18 17 14 16 20 11 11 12 15 16 12 13
33 31 30 29 33 32 31 20 19 16 18 18 16 14 8 8 5 4 5 8 9 13 15 21 25 22 19 22 24 21 18 18 17 14 11 21 14 14 14 15 15 11 11
33 32 30 31 36 34 29 28 19 18 20 18 13 7 8 5 5 4 5 7 10 12 12 21 31 28 23 27 28 26 24 22 23 19 14 16 25 19 18 20 19 19 19
34 33 32 32 37 37 31 26 18 18 18 16 11 10 8 6 4 3 3 6 10 14 18 22 26 28 27 27 28 28 27 25 25 21 17 19 19 26 25 25 26 25 24
34 36 34 32 37 40 33 28 19 19 18 15 12 8 10 8 8 3 7 10 15 16 18 22 25 26 25 30 32 34 28 25 23 18 18 18 19 19 28 32 29 26 27
36 37 37 37 40 43 36 29 24 22 19 18 15 11 12 10 9 9 9 13 20 17 18 22 23 25 29 30 31 33 27 27 18 19 17 16 20 24 24 28 28 26 30
36 37 38 40 43 47 40 36 22 19 17 19 17 13 13 8 8 8 9 12 14 12 10 14 25 23 36 47 43 33 32 21 15 21 21 18 20 21 18 21 22 25 32
38 39 41 48 51 51 45 32 23 19 20 22 19 19 14 7 8 11 9 12 13 13 18 20 23 22 40 22 50 34 31 20 18 25 20 21 23 24 24 24 23 18 20
44 42 42 48 54 55 42 34 24 22 20 21 22 22 21 13 10 11 14 14 18 22 28 20 20 38 26 28 36 31 26 25 10 33 24 23 26 23 17 15 10 8 4
50 48 45 48 53 54 41 38 31 23 25 23 24 24 22 20 18 14 15 16 23 29 24 24 27 28 33 31 32 24 19 26 35 22 26 17 27 17 14 11 11 11 9
53 49 48 49 49 53 53 38 37 29 28 25 25 22 24 23 22 20 19 21 26 23 29 30 33 32 30 32 29 32 28 30 25 31 28 23 20 13 14 9 12 14 13
55 54 51 51 53 50 52 46 39 37 30 26 25 27 29 29 30 26 24 27 29 23 25 33 33 34 32 31 34 36 28 30 31 20 36 28 23 9 8 9 10 10 14
60 57 53 54 61 57 53 49 48 39 37 30 30 28 24 23 23 25 27 31 32 32 29 33 35 38 41 35 37 36 31 28 28 27 29 32 25 12 6 8 11 13 16
Wind_Direction_850mb
137 140 132 132 126 125 125 126 125 123 125 131 135 128 96 90 95 93 84 81 81 84 88 93 92 93 93 89 88 89 81 63 53 52 59 73 83 86 84 80 92 81 131
141 141 134 132 122 117 118 119 118 119 121 126 124 109 99 98 93 91 89 87 93 85 78 89 95 95 93 97 95 79 58 39 32 49 63 48 50 68 88 90 118 208 116
139 140 134 125 119 122 119 122 119 117 120 115 104 106 112 111 106 107 104 100 85 90 86 83 82 84 87 86 77 65 48 30 27 26 46 85 112 35 40 104 99 130 144
137 134 134 126 122 118 120 120 119 116 115 115 107 106 101 112 113 115 115 115 100 83 75 75 76 78 78 72 61 44 31 24 21 40 41 48 130 52 85 130 94 124 135
136 138 144 126 126 125 121 115 114 113 116 119 118 113 112 104 107 110 116 105 86 75 72 69 66 63 56 47 39 31 28 24 24 50 13 44 139 257 88 136 65 118 126
140 144 139 132 129 128 127 120 117 116 121 123 122 115 113 105 103 107 111 93 75 69 63 60 57 57 52 42 30 20 13 7 17 350 25 20 82 207 183 155 178 177 171
142 153 142 137 132 133 132 125 129 136 126 122 132 125 128 117 108 102 99 93 85 78 66 56 51 46 40 36 25 11 355 340 18 326 343 47 20 3 284 213 191 169 174
147 146 153 143 139 134 133 138 139 135 133 127 135 129 123 114 108 105 100 96 87 77 72 64 54 43 37 27 19 15 10 357 341 275 274 49 357 12 337 260 235 236 211
148 152 149 145 145 137 137 139 139 134 139 139 133 125 117 112 109 103 99 92 89 81 70 64 46 36 21 13 12 13 17 21 42 299 304 11 338 1 358 306 264 263 251
151 153 151 149 147 144 145 145 137 140 139 141 127 120 112 109 105 101 92 87 83 77 71 59 45 29 12 4 360 6 21 21 16 341 326 267 330 351 359 339 289 285 282
155 159 157 159 156 155 154 150 139 138 138 128 120 120 110 115 107 81 92 86 73 59 38 30 31 19 23 16 7 14 33 11 10 356 335 295 325 347 353 349 321 303 292
160 163 166 157 160 153 153 154 153 145 142 149 145 136 121 122 110 100 75 61 45 38 33 33 26 28 29 30 10 9 360 3 354 358 311 317 317 331 343 338 337 319 302
163 164 166 164 160 155 166 156 152 154 152 143 137 130 137 114 107 70 53 47 38 30 38 27 13 10 11 17 10 9 7 1 348 336 310 321 298 296 310 325 316 299 300
169 169 167 169 168 165 162 150 158 155 153 140 147 132 125 96 89 94 87 41 33 20 26 12 1 351 352 358 356 353 4 355 348 344 316 320 301 287 295 313 315 299 297
175 176 174 173 170 168 157 172 161 160 147 159 145 144 130 111 113 83 51 49 26 9 1 1 355 345 348 346 353 346 340 342 341 341 330 312 306 298 289 302 305 296 302
178 180 180 175 171 170 170 168 167 160 175 156 163 167 149 123 128 56 26 20 5 3 360 355 359 6 355 343 341 340 339 338 329 321 308 307 310 301 285 287 286 280 288
183 181 184 178 174 172 169 168 170 173 172 180 188 187 170 148 170 139 307 342 339 351 3 355 356 349 347 342 335 334 332 330 325 310 303 305 305 310 310 292 280 280 287
185 185 183 178 180 175 177 181 173 183 185 195 201 211 227 218 230 266 308 311 313 345 342 336 341 332 342 341 335 330 326 328 329 332 321 300 296 294 309 300 289 278 292
187 186 185 182 181 177 175 176 177 195 201 213 221 229 249 241 264 270 294 302 317 327 332 339 338 346 345 343 336 329 324 311 332 328 317 299 301 304 293 285 284 285 298
188 188 187 184 182 179 181 181 190 203 214 214 215 225 232 241 269 277 297 327 347 343 329 333 18 353 331 340 338 332 322 306 300 331 321 316 308 320 313 294 287 294 296
190 188 190 189 187 184 187 191 202 204 205 213 218 220 226 241 277 272 294 312 331 323 306 323 348 329 15 316 324 326 333 315 301 325 329 324 320 324 309 297 297 283 298
194 193 193 194 193 191 193 196 203 207 214 210 223 229 226 244 275 289 277 291 301 304 305 334 338 306 336 334 318 318 319 331 324 321 319 324 318 330 327 335 338 319 303
198 199 198 195 196 199 194 201 213 213 213 225 228 233 243 251 260 283 295 289 306 309 304 306 312 317 332 339 322 304 306 309 314 317 305 307 323 337 354 350 358 4 4
200 203 202 201 201 206 208 207 213 213 220 225 230 236 234 248 255 264 275 287 299 292 296 315 327 331 325 322 323 305 289 281 294 306 327 315 336 342 353 12 22 8 18
199 204 205 206 207 209 214 210 220 218 227 228 231 238 247 243 255 259 263 268 288 300 291 303 314 317 321 314 325 312 295 284 290 284 310 318 320 315 340 13 353 11 1
205 205 206 209 211 214 218 217 223 222 221 228 237 240 253 254 259 267 259 268 280 288 300 302 304 314 316 315 321 311 300 284 298 304 310 311 314 302 309 343 352 353 351